Location: Hylvaty SDH
(49.9612°N, 16.4057°E)
Time: 00:50:54
(UTC+01:00)

Vanguard 2 Rocket - All Passes

Search period start: 26 January 2020 00:00
Search period end: 05 February 2020 00:00
Orbit: 554 x 3326 km, 32.9° (Epoch: 25 January)

Date Brightness Start Highest point End Pass type
(mag) Time Alt. Az. Time Alt. Az. Time Alt. Az.
26 Jan - 05:30:35 10° S 05:32:39 12° SSE 05:35:00 10° SE visible
26 Jan - 07:40:35 10° SW 07:44:39 18° S 07:50:06 10° SE daylight
26 Jan - 09:54:04 10° SW 09:57:34 13° SSW 10:01:45 10° S daylight
27 Jan - 06:42:12 10° SSW 06:45:23 16° S 06:49:25 10° SE visible
27 Jan - 08:54:27 10° SW 08:57:54 14° SSW 09:02:08 10° SSE daylight
28 Jan - 05:44:12 10° SSW 05:46:17 12° S 05:48:40 10° SE visible
28 Jan - 07:55:25 10° SW 07:58:27 14° S 08:02:08 10° SSE daylight
29 Jan - 06:56:46 10° SSW 06:59:09 13° S 07:01:57 10° SSE visible
30 Jan - 05:58:32 10° SSW 06:00:00 11° S 06:01:36 10° SSE visible
